Miscellaneous Local Product
Issued by NWS Hastings, NE

Home | Current Version | Previous Version | Text Only | Print | Product List | Glossary On
Versions: 1 2 3 4 5 6 7 8 9 10 11 12 13 14 15 16 17 18 19 20 21 22 23 24 25 26 27 28 29 30 31 32 33 34 35 36 37 38 39 40 41 42 43 44 45 46 47 48 49 50
000
AXUS43 KGID 231502
MISGRI

GID CWA HOURLY WEATHER ROUNDUP
NATIONAL WEATHER SERVICE HASTINGS NE
1000 AM CDT SAT MAY 23 2015

NOTE: "FAIR" INDICATES FEW OR NO CLOUDS BELOW 12,000 FEET WITH NO
SIGNIFICANT WEATHER AND/OR OBSTRUCTIONS TO VISIBILITY.

...SOUTH CENTRAL NEBRASKA...

CITY           SKY/WX    TMP DP  RH WIND       PRES   REMARKS
GRAND ISLAND   CLOUDY    54  52  93 SE9       30.16R
HASTINGS       CLOUDY    54  52  93 S10       30.14R
KEARNEY        CLOUDY    54  52  94 SE14      30.13R
ORD            CLOUDY    53  51  93 SE12      30.12F
YORK           CLOUDY    55  54  94 SE12      30.15F
AURORA         CLOUDY    56  54  92 SE15      30.13F
LEXINGTON      CLOUDY    55  54  97 SE12      30.10R FOG
HOLDREGE       CLOUDY    53  52  95 SE12G17   30.11R FOG
HEBRON         CLOUDY    58  52  81 S13       30.17R

...NEBRASKA PANHANDLE...

CITY           SKY/WX    TMP DP  RH WIND       PRES   REMARKS
CHADRON        CLOUDY    53  47  79 SE10      30.04S
ALLIANCE       CLOUDY    52  51  97 SE12      30.03S
SCOTTSBLUFF    CLOUDY    50  50 100 E8        30.03S
SIDNEY         FOG       51  50  96 SE10      30.04S VSB 1

...WESTERN AND NORTH CENTRAL NEBRASKA...

CITY           SKY/WX    TMP DP  RH WIND       PRES   REMARKS
VALENTINE      CLOUDY    54  53  97 S6        30.10F
AINSWORTH      CLOUDY    55  55 100 S8        30.11S
ONEILL         CLOUDY    56  53  88 SE8       30.15R
BROKEN BOW       N/A     54  53  97 SE13      30.11S
IMPERIAL       CLOUDY    54  52  93 SE14      30.03S
NORTH PLATTE   CLOUDY    54  52  93 SE9       30.08R
MCCOOK         CLOUDY    54  53  97 S10       30.07R

...EASTERN NEBRASKA...

CITY           SKY/WX    TMP DP  RH WIND       PRES   REMARKS
NORFOLK        CLOUDY    58  52  80 SE13      30.17R
SO SIOUX CITY  CLOUDY    61  51  70 SE7       30.20R
TEKAMAH        CLOUDY    63  53  70 SE10      30.19R
COLUMBUS       CLOUDY    55  48  76 SE8       30.20S
ALBION         CLOUDY    55  50  85 SE8       30.16S
OMAHA EPPLEY   CLOUDY    62  53  72 S13       30.20S
OFFUTT AFB     CLOUDY    59  55  85 SE12      30.20S
MILLARD        CLOUDY    59  54  83 SE8       30.19S
LINCOLN        CLOUDY    57  55  93 SE10      30.18F FOG
NEBRASKA CITY  CLOUDY    56  56  99 SE9       30.20F FOG
BEATRICE       CLOUDY    56  54  91 SE8       30.17F
FALLS CITY     CLOUDY    60  56  86 SE12      30.21R

...NORTHERN KANSAS...

CITY           SKY/WX    TMP DP  RH WIND       PRES   REMARKS
GOODLAND       CLOUDY    53  52  96 SE23G31   30.02F FOG
HILL CITY      CLOUDY    55  53  93 S12G17    30.08S
NORTON         CLOUDY    54  52  94 SE9G17    30.07S
PHILLIPSBURG   CLOUDY    57  57 100 SE8       30.10S
SMITH CENTER   CLOUDY    54  54 100 SE13      30.11F
HAYS           CLOUDY    55  48  76 SE12      30.10S
RUSSELL        CLOUDY    56  55  97 SE13      30.10F
CONCORDIA      CLOUDY    58  54  86 SE13      30.13F
SALINA         CLOUDY    61  56  83 SE12      30.15F
TOPEKA         CLOUDY    61  56  83 SE7       30.21R



USA.gov is the U.S. government's official web portal to all federal, state and local government web resources and services.